When you browse on this site, cookies collect data to enhance your experience and personalize the content and advertising you see.
Visit our Privacy Policy to learn more. By continuing to use the site, you agree to this use of cookies and data.
  • In Sweden
  • List of Countries
  • For 7 days
  • Water Temperature
  • Satellite Maps
  • Weather Map
  • Weather Widgets
  • user-avatar
    Login

    Hourly Weather Burhaniye

    Today, 21 January, Monday

    Time Temperature Precipitation Wind Pressure Humidity
    00:00 +9°C° 0 mm 2 mps 760 mmHg 95%
    01:00 +9°C° 0 mm 2 mps 760 mmHg 95%
    02:00 +8°C° 0 mm 2 mps 760 mmHg 95%
    03:00 +9°C° 0.1 mm 1 mps 760 mmHg 95%
    04:00 +9°C° 0.1 mm 1 mps 760 mmHg 95%
    05:00 +9°C° 0.1 mm 1 mps 759 mmHg 95%
    06:00 +9°C° 0.1 mm 1 mps 759 mmHg 94%
    07:00 +9°C° 0.1 mm 1 mps 759 mmHg 93%
    08:00 +10°C° 0 mm 1 mps 759 mmHg 92%
    09:00 +11°C° 0 mm 1 mps 760 mmHg 86%
    10:00 +12°C° 0 mm 1 mps 760 mmHg 80%
    11:00 +13°C° 0 mm 1 mps 760 mmHg 74%
    12:00 +14°C° 0 mm 1 mps 760 mmHg 72%
    13:00 +14°C° 0 mm 1 mps 760 mmHg 69%
    14:00 +15°C° 0 mm 1 mps 760 mmHg 67%
    15:00 +14°C° 0 mm 1 mps 760 mmHg 72%
    16:00 +13°C° 0 mm 1 mps 760 mmHg 77%
    17:00 +13°C° 0 mm 1 mps 760 mmHg 82%
    18:00 +12°C° 0 mm 2 mps 760 mmHg 85%
    19:00 +10°C° 0 mm 2 mps 761 mmHg 89%
    20:00 +9°C° 0 mm 3 mps 761 mmHg 92%
    21:00 +9°C° 0 mm 3 mps 761 mmHg 93%
    22:00 +9°C° 0 mm 3 mps 761 mmHg 93%
    23:00 +8°C° 0 mm 3 mps 762 mmHg 93%

    Tomorrow, 22 January, Tuesday

    Time Temperature Precipitation Wind Pressure Humidity
    00:00 +8°C° 0 mm 3 mps 762 mmHg 93%
    01:00 +8°C° 0 mm 3 mps 762 mmHg 93%
    02:00 +8°C° 0 mm 3 mps 762 mmHg 93%
    03:00 +7°C° 0 mm 3 mps 762 mmHg 93%
    04:00 +7°C° 0 mm 3 mps 761 mmHg 94%
    05:00 +7°C° 0 mm 2 mps 761 mmHg 94%
    06:00 +7°C° 0 mm 2 mps 761 mmHg 95%
    07:00 +7°C° 0 mm 2 mps 761 mmHg 95%
    08:00 +7°C° 0 mm 2 mps 761 mmHg 95%
    09:00 +8°C° 0 mm 2 mps 761 mmHg 91%
    10:00 +9°C° 0 mm 2 mps 761 mmHg 86%
    11:00 +11°C° 0 mm 1 mps 761 mmHg 81%
    12:00 +12°C° 0 mm 2 mps 761 mmHg 79%
    13:00 +13°C° 0 mm 2 mps 760 mmHg 77%
    14:00 +13°C° 0 mm 2 mps 760 mmHg 74%
    15:00 +13°C° 0 mm 2 mps 759 mmHg 78%
    16:00 +12°C° 0 mm 2 mps 759 mmHg 82%
    17:00 +12°C° 0 mm 2 mps 759 mmHg 86%
    18:00 +10°C° 0 mm 2 mps 759 mmHg 89%
    19:00 +10°C° 0 mm 2 mps 758 mmHg 91%
    20:00 +9°C° 0 mm 2 mps 758 mmHg 94%
    21:00 +9°C° 0 mm 3 mps 758 mmHg 94%
    22:00 +9°C° 0 mm 3 mps 758 mmHg 94%
    23:00 +9°C° 0 mm 3 mps 758 mmHg 94%

    Day after tomorrow, 23 January, Wednesday

    Time Temperature Precipitation Wind Pressure Humidity
    00:00 +8°C° 0 mm 4 mps 757 mmHg 94%
    01:00 +8°C° 0 mm 4 mps 757 mmHg 94%
    02:00 +8°C° 0 mm 4 mps 757 mmHg 94%
    03:00 +8°C° 0.1 mm 5 mps 756 mmHg 94%
    04:00 +8°C° 0.1 mm 5 mps 756 mmHg 93%
    05:00 +8°C° 0.1 mm 5 mps 755 mmHg 93%
    06:00 +8°C° 0.1 mm 5 mps 755 mmHg 93%
    07:00 +9°C° 0.1 mm 5 mps 755 mmHg 93%
    08:00 +9°C° 0.1 mm 5 mps 755 mmHg 92%
    09:00 +10°C° 0.1 mm 6 mps 755 mmHg 90%
    10:00 +10°C° 0.1 mm 7 mps 755 mmHg 88%
    11:00 +11°C° 0.1 mm 8 mps 755 mmHg 86%
    12:00 +11°C° 0.5 mm 7 mps 755 mmHg 85%
    13:00 +12°C° 0.5 mm 7 mps 755 mmHg 84%
    14:00 +13°C° 0.5 mm 6 mps 754 mmHg 83%
    15:00 +11°C° 0.8 mm 6 mps 754 mmHg 86%
    16:00 +12°C° 0.8 mm 5 mps 754 mmHg 89%
    17:00 +12°C° 0.8 mm 4 mps 754 mmHg 92%
    18:00 +11°C° 0.5 mm 4 mps 754 mmHg 93%
    19:00 +11°C° 0.5 mm 4 mps 754 mmHg 94%
    20:00 +11°C° 0.5 mm 4 mps 754 mmHg 94%
    21:00 +10°C° 0 mm 4 mps 753 mmHg 94%
    22:00 +10°C° 0 mm 4 mps 753 mmHg 93%
    23:00 +10°C° 0 mm 3 mps 752 mmHg 93%

    24 January, Thursday

    Time Temperature Precipitation Wind Pressure Humidity
    00:00 +10°C° 0 mm 3 mps 752 mmHg 92%
    01:00 +9°C° 0 mm 3 mps 751 mmHg 90%
    02:00 +9°C° 0 mm 3 mps 751 mmHg 89%
    03:00 +9°C° 0 mm 3 mps 750 mmHg 88%
    04:00 +9°C° 0 mm 3 mps 749 mmHg 88%
    05:00 +9°C° 0 mm 3 mps 749 mmHg 87%
    06:00 +9°C° 0.1 mm 3 mps 748 mmHg 87%
    07:00 +9°C° 0.1 mm 3 mps 748 mmHg 87%
    08:00 +9°C° 0.1 mm 3 mps 748 mmHg 87%
    09:00 +10°C° 0.2 mm 4 mps 748 mmHg 84%
    10:00 +11°C° 0.2 mm 4 mps 747 mmHg 80%
    11:00 +12°C° 0.2 mm 4 mps 747 mmHg 77%
    12:00 +12°C° 0.5 mm 4 mps 747 mmHg 79%
    13:00 +12°C° 0.5 mm 4 mps 746 mmHg 80%
    14:00 +12°C° 0.5 mm 3 mps 746 mmHg 81%
    15:00 +11°C° 0.9 mm 4 mps 746 mmHg 84%
    16:00 +11°C° 0.9 mm 4 mps 746 mmHg 87%
    17:00 +11°C° 0.9 mm 4 mps 746 mmHg 90%
    18:00 +11°C° 0.4 mm 4 mps 746 mmHg 91%
    19:00 +10°C° 0.4 mm 4 mps 747 mmHg 93%
    20:00 +10°C° 0.4 mm 3 mps 747 mmHg 94%
    21:00 +10°C° 0.2 mm 4 mps 748 mmHg 94%
    22:00 +11°C° 0.2 mm 4 mps 748 mmHg 94%
    23:00 +10°C° 0.2 mm 5 mps 749 mmHg 94%

    25 January, Friday

    Time Temperature Precipitation Wind Pressure Humidity
    00:00 +10°C° 0.3 mm 5 mps 750 mmHg 94%
    01:00 +10°C° 0.3 mm 5 mps 750 mmHg 93%
    02:00 +9°C° 0.3 mm 5 mps 751 mmHg 93%
    03:00 +9°C° 0.2 mm 5 mps 751 mmHg 93%
    04:00 +10°C° 0.2 mm 4 mps 751 mmHg 94%
    05:00 +10°C° 0.2 mm 4 mps 751 mmHg 94%
    06:00 +10°C° 0 mm 4 mps 751 mmHg 94%
    07:00 +8°C° 0 mm 4 mps 751 mmHg 94%
    08:00 +9°C° 0 mm 3 mps 752 mmHg 94%
    09:00 +9°C° 0.1 mm 5 mps 752 mmHg 88%
    10:00 +10°C° 0.1 mm 6 mps 751 mmHg 83%
    11:00 +11°C° 0.1 mm 7 mps 751 mmHg 78%
    12:00 +11°C° 0.3 mm 7 mps 751 mmHg 78%
    13:00 +11°C° 0.3 mm 7 mps 750 mmHg 79%
    14:00 +11°C° 0.3 mm 8 mps 750 mmHg 79%
    15:00 +11°C° 0.4 mm 7 mps 750 mmHg 81%
    16:00 +10°C° 0.4 mm 7 mps 749 mmHg 83%
    17:00 +10°C° 0.4 mm 6 mps 749 mmHg 85%
    18:00 +10°C° 0.5 mm 7 mps 749 mmHg 86%
    19:00 +9°C° 0.5 mm 7 mps 749 mmHg 86%
    20:00 +9°C° 0.5 mm 7 mps 749 mmHg 87%
    21:00 +9°C° 2.9 mm 6 mps 748 mmHg 90%
    22:00 +8°C° 2.9 mm 5 mps 748 mmHg 92%
    23:00 +8°C° 2.9 mm 4 mps 748 mmHg 95%

    26 January, Saturday

    Time Temperature Precipitation Wind Pressure Humidity
    00:00 +8°C° 0.2 mm 4 mps 748 mmHg 95%
    01:00 +9°C° 0.2 mm 3 mps 748 mmHg 94%
    02:00 +9°C° 0.2 mm 3 mps 748 mmHg 94%
    03:00 +8°C° 0 mm 3 mps 748 mmHg 93%
    04:00 +8°C° 0 mm 3 mps 747 mmHg 92%
    05:00 +8°C° 0 mm 3 mps 747 mmHg 91%
    06:00 +8°C° 0.1 mm 3 mps 747 mmHg 90%
    07:00 +8°C° 0.1 mm 3 mps 747 mmHg 89%
    08:00 +7°C° 0.1 mm 4 mps 747 mmHg 88%
    09:00 +9°C° 1.9 mm 3 mps 747 mmHg 89%
    10:00 +9°C° 1.9 mm 3 mps 747 mmHg 91%
    11:00 +9°C° 1.9 mm 3 mps 748 mmHg 92%
    12:00 +9°C° 1 mm 3 mps 748 mmHg 92%
    13:00 +9°C° 1 mm 3 mps 748 mmHg 91%
    14:00 +9°C° 1 mm 2 mps 748 mmHg 91%
    15:00 +9°C° 0.2 mm 2 mps 749 mmHg 92%
    16:00 +9°C° 0.2 mm 2 mps 749 mmHg 93%
    17:00 +11°C° 0.2 mm 1 mps 750 mmHg 93%
    18:00 +10°C° 0 mm 1 mps 751 mmHg 94%
    19:00 +10°C° 0 mm 1 mps 751 mmHg 94%
    20:00 +10°C° 0 mm 1 mps 752 mmHg 94%
    21:00 +9°C° 0 mm 1 mps 752 mmHg 95%
    22:00 +9°C° 0 mm 1 mps 752 mmHg 95%
    23:00 +8°C° 0 mm 2 mps 753 mmHg 95%
    Show more